Torna al catalogo

QIANFAN-88

AttivoComunicazioniPO
NORAD 63174·PAYLOAD·🇨🇳 China

Lanciato Mar 11, 2025 da Wenchang Space Launch Site

Loading…

Prossimi Passaggi (prossime 24 ore)

TLE

AggiornatoSource: Space-Track

Epoca: Sep 14, 2026, 13:49 UTC

1 63174U 25046R   26257.57620676  .00000078  00000-0  10248-3 0  9992
2 63174  88.9652 291.2156 0013842  63.8230 296.4343 13.51029425 84754

Traccia QIANFAN-88 in tempo reale con AllMySat

Download on the App Store